Regional Weather Roundup
Issued by NWS Sterling, VA

Home | Current Version | Previous Version | Text Only | Print | Product List | Glossary On
Versions: 1 2 3 4 5 6 7 8 9 10 11 12 13 14 15 16 17 18 19 20 21 22 23 24 25 26 27
000
ASUS41 KLWX 280710
RWRLWX

REGIONAL WEATHER ROUNDUP
NATIONAL WEATHER SERVICE BALTIMORE MD/WASHINGTON DC
300 AM EDT SUN AUG 28 2016

Note: "FAIR" indicates few or no clouds below 12,000 feet
with no significant weather and/or obstructions to visibility.
 TC=TEMPERATURE CELSIUS

 * =Non NWS site. Station does not report precipitation (e.g. rain,
    snow, etc.), thunder, or fog.

DCZ001-MDZ009-015-VAZ040>042-051-053>054-280800-
WASHINGTON METRO

CITY           SKY/WX    TMP DP  RH WIND       PRES   REMARKS
WASHINGTON NAT PTCLDY    75  71  87 SE6       30.19S
DULLES         PTCLDY    68  64  87 CALM      30.20R
ANDREWS AFB    CLEAR     70  68  93 E3        30.19R
FT BELVOIR     CLEAR     68  67  95 CALM      30.18S
QUANTICO       CLEAR     76  69  79 CALM      30.19R
COLLEGE PARK*  CLEAR     68  68 100 CALM      30.19S
LEESBURG*      CLEAR     70  68  94 CALM      30.21S
MANASSAS*      CLEAR     68  68 100 CALM      30.19S
GAITHERSBURG*  CLEAR     68  64  88 CALM      30.25R

$$

MDZ006>007-011-014-280800-
BALTIMORE METRO

CITY           SKY/WX    TMP DP  RH WIND       PRES   REMARKS
BWI AIRPORT    CLEAR     73  69  87 E6        30.19S
MD SCIENCE CTR   N/A     77  69  76 MISG      30.20S
MARTIN STATE   CLEAR     73  72  94 E5        30.21S
ANNAPOLIS      CLEAR     78  72  81 E8        30.19R
FORT MEADE*    CLEAR    N/A N/A N/A CALM      30.21S

$$

MDZ012-015-019>023-280800-
MARYLAND EASTERN SHORE

CITY           SKY/WX    TMP DP  RH WIND       PRES   REMARKS
OCEAN CITY     CLEAR     76  71  85 E7        30.18S
SALISBURY      CLEAR     70  69  97 CALM      30.18S FOG
BAY BRIDGE AP* CLEAR     73  70  88 E6        30.19R
CAMBRIDGE*     CLEAR     68  68 100 CALM      30.18S
EASTON*        CLEAR     72  72 100 CALM      30.22S

$$

MDZ017>025-280800-
SOUTHERN MARYLAND

CITY           SKY/WX    TMP DP  RH WIND       PRES   REMARKS
PATUXENT RIVER MOCLDY    76  72  87 E12       30.17S
ST INIGOES     PTCLDY    76  73  91 E5        30.16F
LEONARDTOWN*   PTCLDY    73  70  88 E3        30.19S

$$

MDZ003>005-280800-
NORTH CENTRAL MARYLAND

CITY           SKY/WX    TMP DP  RH WIND       PRES   REMARKS
FREDERICK*     CLEAR     68  68 100 CALM      30.23R FOG
HAGERSTOWN APT CLEAR     75  65  70 SE3       30.20S

$$

MDZ501>502-280800-
WESTERN MARYLAND

CITY           SKY/WX    TMP DP  RH WIND       PRES   REMARKS
OAKLAND*       CLEAR     68  64  88 SE8       30.28R
CUMBERLAND*    CLEAR     70  68  94 CALM      30.22S

$$

VAZ025>031-280800-
SHENANDOAH VALLEY

CITY           SKY/WX    TMP DP  RH WIND       PRES   REMARKS
WINCHESTER*    CLEAR     66  63  88 CALM      30.20R
FRONT ROYAL*   FAIR      68  66  94 CALM      30.19R
LURAY*         FAIR     N/A N/A N/A CALM      30.21R
NEW MARKET*    FAIR     N/A N/A N/A CALM      30.20S
STAUNTON*      CLEAR     66  65  96 CALM      30.24R
WAYNESBORO*    FAIR      68  64  88 CALM      30.24R

$$

WVZ021-048>050-054>055-280800-
EASTERN WEST VIRGINIA PANHANDLE

CITY           SKY/WX    TMP DP  RH WIND       PRES   REMARKS
MARTINSBURG    CLEAR     67  65  93 CALM      30.19S
PETERSBURG*    CLEAR     69  69  98 CALM      30.20R FOG

$$

VAZ036>039-050-280800-
CENTRAL FOOTHILLS

CITY           SKY/WX    TMP DP  RH WIND       PRES   REMARKS
CHARLOTTESVILL CLEAR     71  68  90 CALM      30.20S
CULPEPER*      PTCLDY    68  68 100 CALM      30.20S FOG
ORANGE*          N/A     68  68 100 CALM      30.22R
GORDONSVILLE*  NOT AVBL
WARRENTON*     HAZE      65  60  86 CALM      30.19S VSB 1/2

$$

VAZ055>057-280800-
NORTH AND CENTRAL PIEDMONT

CITY           SKY/WX    TMP DP  RH WIND       PRES   REMARKS
FREDERICKSBRG* CLEAR     68  68 100 CALM      30.18R
STAFFORD*      CLEAR     65  64  97 CALM      30.22S

$$

NCZ024-NYZ072-PAZ021-071-VAZ022-071-280800-
OTHER REGIONAL OBSERVATIONS

CITY           SKY/WX    TMP DP  RH WIND       PRES   REMARKS
NEW YORK CITY  CLEAR     74  61  63 VRB5      30.24S
PHILADELPHIA   PTCLDY    73  69  87 CALM      30.21S
PITTSBURGH     PTCLDY    75  69  81 CALM      30.16S
ROANOKE        CLOUDY    77  66  68 CALM      30.25R
RICHMOND       PTCLDY    70  66  87 N3        30.17S
RALEIGH        PTCLDY    73  70  90 NE5       30.17S

$$

ANZ530>537-280800-
MARINE OBSERVATIONS

STATION/POSITION TIME  TEMP    WIND        PRES
                       AIR SEA DIR/SP/G
                 (UTC) (F)     (DEG/KT/KT) (MB)
THOMAS PT LIGHT  0700   75 83  120/  9/ 10 1023.6R
BALT KEY BRIDGE  0642   77      90/ 10/ 10 1022.3R
COVE POINT       0642   75     130/ 14/ 16 1022.4S
LEWISETTA        0642   79 84  120/ 14/ 16 1021.0F
SOLOMONS ISLAND  0648          100/ 13/ 15   N/A
PINEY POINT      0648          110/ 10/ 12   N/A

$$





USA.gov is the U.S. government's official web portal to all federal, state and local government web resources and services.